Powrót do katalogu

COSMOS 1249 COOLANT

AktywnyLEO
NORAD 26506·DEBRIS·🇷🇺 Russia

Wystrzelony Mar 5, 1981 z Baikonur Cosmodrome

Loading…

Następne Przeloty (najbliższe 24 godziny)

TLE

Starzejące sięSource: Space-Track

Epoka: Sep 9, 2026, 17:17 UTC

1 26506U 81021H   26252.72014417  .00000141  00000-0  17603-3 0  9990
2 26506  64.9565  60.3332 0061789 240.0740 119.4179 13.92949970671718

Śledź COSMOS 1249 COOLANT w czasie rzeczywistym z AllMySat

Download on the App Store